Tracking 35275 objects as of 9-Sep-2026
HD Live streaming from Space Station
objects crossing your sky now

NORBY-3

Track NORBY-3 now!
10-day predictions
NORBY-3 is classified as:


NORAD ID: 61761
Int'l Code: 2024-199AC
Launch date: November 4, 2024
Source: (TBD)
Launch site: VOSTOCHNY COSMODROME (VOSTO)

Uplink (MHz):
Downlink (MHz): 436.570
Beacon (MHz):
Mode: LoRa
Call sign:
Status: Unknown

Your satellite tracking list
Your tracking list is empty




NASA's NSSDC Master Catalog

Two Line Element Set (TLE):
1 61761U 24199AC  26252.08669102  .00062965  00000-0  66418-3 0  9991
2 61761  97.2748 130.8092 0002794 352.4588   7.6628 15.64039538150694
Source of the keplerian elements: AFSPC